Regional Weather Roundup
Issued by NWS Charleston, SC

Current Version | Previous Version | Text Only | Print | Product List | Glossary Off
Versions: 1 2 3 4 5 6 7 8 9 10 11 12 13 14 15 16 17 18 19 20 21 22 23 24 25 26 27 28 29 30 31 32 33 34 35 36 37 38 39 40 41 42 43 44 45 46 47 48 49 50

000
ASUS42 KCHS 180227
RWRCHS

REGIONAL WEATHER ROUNDUP
NATIONAL WEATHER SERVICE CHARLESTON SC
1000 PM EDT THU AUG 17 2017

NOTE: "FAIR" INDICATES FEW OR NO CLOUDS BELOW 12,000 FEET WITH NO
SIGNIFICANT WEATHER AND/OR OBSTRUCTIONS TO VISIBILITY.

NOT ALL STATIONS ARE QUALITY CONTROLLED. USE DATA WITH CAUTION...
ESPECIALLY DEWPOINT OBSERVATIONS.

SCZ027-030-031-034>040-042>050-180300-
...SOUTHEAST SOUTH CAROLINA...

CITY           SKY/WX    TMP DP  RH WIND       PRES   REMARKS
N CHARLESTON   PTCLDY    83  79  88 SW8       29.99R HX  94
WATERFRONT PRK   N/A    N/A N/A N/A VRB3      29.83R
JOHNS ISLAND   FAIR      84  81  89 SW5       30.00S HX  98
PINOPOLIS        N/A     81  79  94 VRB3      29.92R
MONCKS CORNER  FAIR      77  75  94 CALM      29.99R
SUMMERVILLE    FAIR      81  79  94 CALM      30.00S
BEAUFORT MCAS  PTCLDY    85  80  85 SW6       29.99S HX  99
BEAUFORT ARPT  FAIR      84  79  84 SW5       29.99S HX  96
HILTON HEAD IS CLEAR     86  79  79 SW7       30.01S HX  99
WALTERBORO     CLOUDY    82  77  83 S5        30.00S HX  91
ALLENDALE      NOT AVBL

...SOUTHERN MIDLANDS AND PEE DEE...

CITY           SKY/WX    TMP DP  RH WIND       PRES   REMARKS
GEORGETOWN     FAIR      79  77  94 S3        30.00R
KINGSTREE      FAIR      77  75  94 CALM      29.98S
ORANGEBURG     CLOUDY    80  73  79 SW3       29.99R
BARNWELL       FAIR      84  77  79 CALM      30.00R HX  94
AIKEN          FAIR      81  73  78 SW5       30.04R
MANNING        FAIR      82  75  78 NW14      29.98S
COLUMBIA       PTCLDY    85  76  74 SW3       29.97R HX  94
SUMTER         CLOUDY    84  77  79 S8        29.95R HX  93
FLORENCE       CLOUDY    81  78  91 S6        29.98R
MYRTLE BEACH   CLEAR     81  75  83 CALM      30.00R
N MYRTLE BEACH CLOUDY    78  78 100 CALM      29.99R

$$

GAZ063-065-086>088-099>101-113>116-118-119-134>141-150-180300-
...SOUTHEAST GEORGIA...

CITY           SKY/WX    TMP DP  RH WIND       PRES   REMARKS
SAVANNAH ARPT  PTCLDY    84  75  74 SW7       30.01S HX  92
HUNTER AAF     CLEAR     82  77  83 S3        29.99R HX  91
FORT STEWART   CLOUDY    80  75  84 SW5       29.99R
STATESBORO     MOCLDY    82  72  72 CALM      30.00F
SYLVANIA       PTCLDY    83  80  89 CALM      30.01F HX  96
CLAXTON        FAIR      81  78  91 NE3       30.02R

...CSRA...CENTRAL AND FAR SOUTHEAST GEORGIA...

CITY           SKY/WX    TMP DP  RH WIND       PRES   REMARKS
THOMSON        CLEAR     79  75  88 W3        30.06R
AUGUSTA-BUSH   CLEAR     85  76  74 W5        29.98R HX  94
AUGUSTA-DANIEL CLEAR     87  71  58 W3        30.01R HX  93
SWAINSBORO     FAIR      82  77  83 CALM      30.03R HX  91
VIDALIA        CLOUDY    82  75  78 CALM      30.02R
EASTMAN        FAIR      80  74  82 CALM      30.05R
HAZLEHURST     FAIR      82  71  69 CALM      30.01R
ALMA           CLOUDY    81  76  84 CALM      30.01S
WAYCROSS       CLOUDY    78  75  90 CALM      30.03R
JESUP          FAIR      81  75  83 CALM      30.03R
BAXLEY         FAIR      79  79 100 CALM      30.02R
BRUNSWICK      PTCLDY    81  73  78 CALM      30.03S
SAINT SIMONS   PTCLDY    82  77  84 W6        30.02R HX  90

$$

SCZ027-028-034-036>038-045-046-048>050-GAZ119-141-180300-
...LAKE AND SUPPLEMENTAL COASTAL OBSERVATIONS...

STATION/POSITION TIME  TEMP    WIND        PRES    WAVE   SWELL
                       AIR SEA DIR/SP/G            HT/PER HT/PER/DIR
                 (UTC) (F)     (DEG/KT/KT) (MB)    (FT/S) (FT/S/D)
WINYAH BAY       0145   81     290/  1     1015.0S
LAKE MURRAY      0120   88     220/  6/  7 1013.5
ACE BASIN NERRS  0145   83        CALM     1016.0R
FORT PULASKI     0200   84 86  220/  5/  8 1016.5
SAPELO ISLAND    0200   83        CALM     1016.0

$$

ANZ835-935-AMZ111-154-330-350-352-354-370-450-454-472-180300-
...C-MAN AND BUOY OBSERVATIONS...

STATION/POSITION TIME  TEMP    WIND        PRES    WAVE   SWELL
                       AIR SEA DIR/SP/G            HT/PER HT/PER/DIR
                 (UTC) (F)     (DEG/KT/KT) (MB)    (FT/S) (FT/S/D)
BUOY 41004       0140   85 85  210/ 10/ 12 1015.4R
BUOY 41008       0050   86 86  210/ 10/ 12 1015.6
FOLLY BEACH CMAN 0100   86     210/ 13/ 14 1015.8F
CAPERS NEARSHORE 0208   84 86  220/ 14/ 17 1015.3R
FRIPP NEARSHORE  0208   86     220/ 14/ 17 1015.5R


STATION/POSITION TIME  TEMP    WIND        PRES    WAVE   SWELL
                       AIR SEA DIR/SP/G            HT/PER HT/PER/DIR
                 (UTC) (F)     (DEG/KT/KT) (MB)    (FT/S) (FT/S/D)
5E ST. MARYS GA  0200      86                N/A     1/ 8
FRYING PAN BUOY  0140   84 85  190/  6/  8 1015.3R
BUOY 41025       0050   83 86  180/  8/ 10 1016.3    2/ 7   2/ 50/ 7
CAPE LOOKOUT NC  0100   83     170/  6/  7 1015.5F
BUOY 41002       0050   81 85  250/ 14/ 19 1017.2    2/ 5   2/100/ 7
BUOY 41010       0140   85 86  180/  8/  8 1017.9R
ST AUGUSTINE FL  0100   80 82  190/  5/  5 1017.1R


$$




USA.gov is the U.S. government's official web portal to all federal, state and local government web resources and services.